Waarnemingen

Advertentie
Mijn weer
Helsingborg, Zweden (2611): temperatuur & dauwpunt: 12.10.2017 15:00:00 - 18.10.2017 15:00:00 (CEST)Helsingborg, Zweden (2611): windsnelheid & windstoten: 12.10.2017 15:00:00 - 18.10.2017 15:00:00 (CEST)Helsingborg, Zweden (2611): windrichting: 12.10.2017 15:00:00 - 18.10.2017 15:00:00 (CEST)Helsingborg, Zweden (2611): luchtdruk: 12.10.2017 15:00:00 - 18.10.2017 15:00:00 (CEST)Helsingborg, Zweden (2611): zicht: 12.10.2017 15:00:00 - 18.10.2017 15:00:00 (CEST)Helsingborg, Zweden (2611): neerslag: 12.10.2017 15:00:00 - 18.10.2017 15:00:00 (CEST)
Datum & Tijd tt [°C] td [°C] ff [km/u] ff [kn] fx [km/u] fx [kn] dd ppp [hPa] vv [km] rr [mm]
18.10.2017 15:00:00 - - - - - - - - - -
18.10.2017 14:00:00 13,5 10,3 9 5 23 12 NW 1014,2 48 0,0
18.10.2017 13:00:00 13,5 10,3 11 6 23 12 W 1014,2 49 0,0
18.10.2017 12:00:00 12,5 11,4 6 3 23 12 W 1013,9 8 0,1
18.10.2017 11:00:00 12,5 11,2 10 6 21 11 W 1013,8 31 0,2
18.10.2017 10:00:00 12,4 10,8 8 4 24 13 WZW 1013,3 23 0,2
18.10.2017 09:00:00 12,3 10,2 14 8 24 13 WZW 1012,8 16 0,0
18.10.2017 08:00:00 12,3 9,5 13 7 29 15 WZW 1012,2 27 0,0
18.10.2017 07:00:00 11,9 8,9 14 8 29 15 WZW 1011,8 24 0,0
18.10.2017 06:00:00 11,9 9,1 15 8 28 15 ZW 1011,6 22 0,0
18.10.2017 05:00:00 11,7 9,4 15 8 30 16 ZW 1011,5 17 0,0
18.10.2017 04:00:00 11,8 9,5 17 9 30 16 ZW 1011,8 14 0,0
18.10.2017 03:00:00 11,5 9,6 16 9 29 16 ZZW 1011,9 13 0,0
18.10.2017 02:00:00 11,8 9,4 15 8 29 16 ZZW 1012,5 15 0,0
18.10.2017 01:00:00 11,7 9,3 16 8 30 16 ZZW 1012,7 15 0,0
18.10.2017 00:00:00 11,7 8,9 18 10 30 16 ZZW 1012,7 15 0,0
17.10.2017 23:00:00 12,3 8,9 18 10 29 16 ZZW 1012,8 15 0,0
17.10.2017 22:00:00 12,5 9,0 14 7 29 16 ZZW 1012,9 15 0,0
17.10.2017 21:00:00 12,7 9,0 15 8 29 16 ZZW 1013,3 15 0,0
17.10.2017 20:00:00 12,6 8,9 12 6 27 15 ZW 1013,4 16 0,0
17.10.2017 19:00:00 13,3 9,0 14 8 31 17 ZW 1013,3 15 0,0
17.10.2017 18:00:00 13,6 9,1 14 8 35 19 ZW 1013,5 15 0,0
17.10.2017 17:00:00 14,2 8,8 20 11 35 19 ZW 1013,5 15 0,0
17.10.2017 16:00:00 14,6 9,4 18 10 32 17 ZW 1013,9 15 0,0
17.10.2017 15:00:00 15,4 10,2 16 9 33 18 ZW 1014,0 14 0,0
17.10.2017 14:00:00 15,0 10,4 15 8 33 18 ZW 1014,4 14 0,0
17.10.2017 13:00:00 14,7 11,3 13 7 34 18 ZW 1015,1 12 0,0
17.10.2017 12:00:00 14,7 11,3 16 8 34 18 ZW 1015,3 14 0,0
17.10.2017 11:00:00 14,4 11,7 13 7 23 12 ZW 1015,3 14 0,0
17.10.2017 10:00:00 13,5 12,2 8 5 18 10 Z 1015,3 8 0,0
17.10.2017 09:00:00 13,6 12,3 10 5 19 10 Z 1015,1 8 0,0
17.10.2017 08:00:00 13,1 12,5 11 6 19 10 Z 1014,8 4,0 0,0
17.10.2017 07:00:00 13,2 12,7 10 5 23 12 Z 1014,9 2,5 0,0
17.10.2017 06:00:00 13,2 12,7 8 4 26 14 ZZO 1015,3 2,3 0,0
17.10.2017 05:00:00 13,4 12,8 13 7 26 14 Z 1015,8 2,9 0,0
17.10.2017 04:00:00 13,5 12,6 13 7 26 14 Z 1016,4 3,8 0,0
17.10.2017 03:00:00 13,3 12,4 13 7 26 14 Z 1017,2 4,1 0,0
17.10.2017 02:00:00 12,8 12,3 6 3 16 9 ZZO 1017,9 2,5 0,0
17.10.2017 01:00:00 12,8 12,3 5 3 15 8 ZO 1018,2 2,1 0,0
17.10.2017 00:00:00 12,0 11,7 6 3 9 5 Z 1018,7 1,5 0,0
16.10.2017 23:00:00 11,6 11,1 4 2 10 5 Z 1019,3 1,8 0,0
16.10.2017 22:00:00 11,7 11,1 5 3 10 5 Z 1019,5 4,4 0,0
16.10.2017 21:00:00 11,4 10,8 4 2 9 5 ZZW 1019,7 5 0,0
16.10.2017 20:00:00 11,3 10,5 4 2 8 4 Z 1019,3 5 0,0
16.10.2017 19:00:00 12,3 11,0 4 2 12 7 ZZW 1019,2 9 0,0
16.10.2017 18:00:00 14,6 12,1 7 4 16 9 ZW 1019,1 16 0,0
16.10.2017 17:00:00 15,5 12,3 8 4 16 9 ZZW 1018,5 23 0,0
16.10.2017 16:00:00 15,6 12,7 8 5 16 9 ZZW 1018,5 16 0,0
16.10.2017 15:00:00 15,4 12,5 8 4 17 9 ZZW 1018,2 17 0,0
16.10.2017 14:00:00 15,3 12,4 6 3 17 9 WZW 1018,5 19 0,0
16.10.2017 13:00:00 15,2 12,5 8 4 17 9 W 1018,5 15 0,0
16.10.2017 12:00:00 15,5 12,6 6 4 14 8 W 1018,2 13 0,0
16.10.2017 11:00:00 14,7 12,6 5 3 17 9 W 1018,0 11 0,0
16.10.2017 10:00:00 14,6 12,5 6 3 18 10 WZW 1017,6 11 0,0
16.10.2017 09:00:00 14,2 12,8 10 5 18 10 ZW 1017,1 3,7 0,0
16.10.2017 08:00:00 13,7 12,9 8 4 16 8 ZZW 1016,5 4,1 0,0
16.10.2017 07:00:00 13,6 12,8 8 4 14 8 Z 1016,4 3,9 0,0
16.10.2017 06:00:00 13,4 12,5 7 4 14 8 Z 1016,4 5 0,0
16.10.2017 05:00:00 14,0 13,0 8 5 14 8 Z 1016,7 6 0,0
16.10.2017 04:00:00 13,3 13,0 7 4 13 7 Z 1017,0 6 0,0
16.10.2017 03:00:00 12,4 12,1 8 5 14 7 Z 1017,1 3,9 0,0
16.10.2017 02:00:00 12,9 12,6 10 5 18 10 Z 1017,3 4,4 0,0
16.10.2017 01:00:00 12,8 12,6 10 5 20 11 Z 1017,6 2,5 0,0
16.10.2017 00:00:00 13,3 13,1 9 5 25 14 Z 1018,1 2,3 0,0
15.10.2017 23:00:00 13,5 13,3 12 6 25 14 Z 1018,3 2,1 0,0
15.10.2017 22:00:00 13,1 12,9 14 8 27 15 Z 1019,0 0,3 0,0
15.10.2017 21:00:00 12,9 12,4 15 8 27 15 Z 1019,8 0,7 0,0
15.10.2017 20:00:00 13,0 12,4 16 8 27 15 Z 1020,2 7 0,0
15.10.2017 19:00:00 13,0 12,5 11 6 27 14 Z 1020,4 4,7 0,0
15.10.2017 18:00:00 13,5 12,9 14 8 27 14 Z 1020,5 3,6 0,0
15.10.2017 17:00:00 14,3 13,3 17 9 27 14 Z 1020,6 11 0,0
15.10.2017 16:00:00 15,1 13,9 16 9 24 13 Z 1021,0 13 0,0
15.10.2017 15:00:00 15,2 14,1 13 7 21 11 Z 1021,4 12 0,0
15.10.2017 14:00:00 14,5 13,4 13 7 17 9 Z 1022,0 19 0,0
15.10.2017 13:00:00 14,7 13,1 9 5 17 9 Z 1022,4 43 0,0
15.10.2017 12:00:00 14,4 12,9 8 5 16 9 ZZW 1022,8 47 0,0
15.10.2017 11:00:00 13,5 12,1 10 5 15 8 ZZW 1023,0 41 0,0
15.10.2017 10:00:00 13,4 12,3 8 4 13 7 ZW 1022,8 38 0,0
15.10.2017 09:00:00 12,0 11,4 5 3 11 6 ZZW 1022,8 29 0,0
15.10.2017 08:00:00 11,5 10,6 6 3 14 7 W 1022,5 33 0,0
15.10.2017 07:00:00 11,6 10,7 6 3 14 8 W 1022,2 36 0,0
15.10.2017 06:00:00 11,8 10,7 5 3 16 9 WZW 1021,6 40 0,0
15.10.2017 05:00:00 12,7 11,3 9 5 23 12 WZW 1020,9 43 0,0
15.10.2017 04:00:00 12,7 12,1 7 4 23 12 WZW 1020,4 43 0,0
15.10.2017 03:00:00 12,9 12,4 10 5 28 15 W 1020,0 3,5 0,0
15.10.2017 02:00:00 13,1 12,6 10 6 28 15 WNW 1019,6 2,9 0,2
15.10.2017 01:00:00 14,6 14,1 13 7 27 15 WZW 1018,9 3,0 0,4
15.10.2017 00:00:00 14,9 13,9 15 8 28 15 WZW 1019,3 4,0 0,0
14.10.2017 23:00:00 14,9 14,1 16 9 28 15 WZW 1019,0 11 0,0
14.10.2017 22:00:00 14,8 14,2 13 7 27 14 ZW 1019,0 5 0,1
14.10.2017 21:00:00 15,0 14,4 14 8 27 14 WZW 1019,2 7 0,1
14.10.2017 20:00:00 15,1 14,6 14 7 25 14 WZW 1019,0 13 0,1
14.10.2017 19:00:00 15,0 14,5 11 6 22 12 ZW 1018,7 2,1 0,3
14.10.2017 18:00:00 15,4 14,4 10 5 34 18 WZW 1018,6 15 0,0
14.10.2017 17:00:00 15,5 14,5 12 7 34 18 WZW 1018,3 16 0,0
14.10.2017 16:00:00 15,4 14,9 13 7 27 14 W 1018,1 4,4 0,4
14.10.2017 15:00:00 15,4 14,8 14 8 27 14 WZW 1017,8 4,0 0,0
14.10.2017 14:00:00 15,7 14,7 14 8 29 15 WZW 1017,5 4,7 0,0
14.10.2017 13:00:00 15,4 14,6 15 8 30 16 WZW 1017,2 6 0,0
14.10.2017 12:00:00 15,4 14,6 15 8 30 16 WZW 1017,2 8 0,0
14.10.2017 11:00:00 15,4 14,4 16 9 35 19 WZW 1016,8 8 0,0
14.10.2017 10:00:00 15,4 14,6 18 10 35 19 WZW 1016,5 9 0,0
14.10.2017 09:00:00 15,1 14,5 17 9 27 14 ZW 1016,2 8 0,0
14.10.2017 08:00:00 15,0 14,4 13 7 27 14 WZW 1016,3 7 0,0
14.10.2017 07:00:00 15,1 14,5 13 7 27 14 ZW 1016,2 8 0,0
14.10.2017 06:00:00 15,0 14,4 12 7 27 14 ZW 1016,3 9 0,0
14.10.2017 05:00:00 14,8 14,3 14 8 26 14 ZW 1016,2 8 0,0
14.10.2017 04:00:00 14,5 14,2 11 6 22 12 ZW 1016,7 7 0,0
14.10.2017 03:00:00 13,8 13,5 12 6 20 11 ZZW 1016,8 2,5 0,1
14.10.2017 02:00:00 13,5 13,2 13 7 20 11 Z 1017,0 2,0 0,7
14.10.2017 01:00:00 13,3 13,0 10 6 22 12 Z 1017,3 2,5 0,6
14.10.2017 00:00:00 13,1 12,6 13 7 22 12 Z 1017,5 3,7 0,0
13.10.2017 23:00:00 12,8 12,2 14 8 26 14 Z 1017,6 4,1 0,0
13.10.2017 22:00:00 12,7 11,6 15 8 26 14 Z 1018,3 7 0,0
13.10.2017 21:00:00 12,8 11,2 18 10 25 14 Z 1018,5 12 0,0
13.10.2017 20:00:00 12,9 11,0 14 7 23 12 Z 1019,2 17 0,0
13.10.2017 19:00:00 13,2 10,6 13 7 19 10 ZZW 1019,2 30 0,0
13.10.2017 18:00:00 13,3 9,9 9 5 19 10 Z 1019,1 33 0,0
13.10.2017 17:00:00 13,8 9,4 8 4 22 12 ZZW 1019,3 28 0,0
13.10.2017 16:00:00 14,7 8,9 10 5 22 12 ZW 1019,6 31 0,0
13.10.2017 15:00:00 14,9 9,0 11 6 22 12 WZW 1019,7 29 0,0
13.10.2017 14:00:00 14,0 8,0 6 3 22 12 W 1019,7 27 0,0
13.10.2017 13:00:00 14,0 6,8 10 6 23 13 W 1019,8 28 0,0
13.10.2017 12:00:00 13,5 8,3 10 6 23 13 W 1019,7 19 0,0
13.10.2017 11:00:00 12,9 9,0 13 7 25 13 W 1019,1 19 0,0
13.10.2017 10:00:00 12,1 8,9 11 6 31 17 W 1018,6 17 0,0
13.10.2017 09:00:00 12,2 7,9 12 6 33 18 NW 1017,9 19 0,0
13.10.2017 08:00:00 11,3 8,7 16 9 35 19 W 1017,1 15 0,0
13.10.2017 07:00:00 10,8 7,1 17 9 44 24 NW 1016,3 19 0,0
13.10.2017 06:00:00 11,3 7,8 20 11 46 25 NW 1015,8 18 0,0
13.10.2017 05:00:00 11,5 8,2 23 13 57 31 WNW 1015,3 15 0,0
13.10.2017 04:00:00 11,3 7,8 26 14 57 31 WNW 1014,5 16 0,0
13.10.2017 03:00:00 11,2 7,7 28 15 54 29 WNW 1013,8 15 0,0
13.10.2017 02:00:00 11,1 7,2 25 14 52 28 WNW 1012,8 16 0,0
13.10.2017 01:00:00 10,9 6,6 24 13 54 29 W 1012,1 17 0,0
13.10.2017 00:00:00 10,8 6,4 24 13 54 29 W 1011,4 19 0,0
12.10.2017 23:00:00 10,7 6,3 22 12 52 28 W 1010,7 19 0,0
12.10.2017 22:00:00 10,7 5,9 22 12 53 28 W 1010,3 24 0,0
12.10.2017 21:00:00 10,9 5,8 24 13 53 28 W 1009,6 23 0,0
12.10.2017 20:00:00 10,9 5,8 22 12 53 29 W 1009,2 28 0,0
12.10.2017 19:00:00 10,7 5,9 22 12 53 29 W 1008,6 39 0,0
12.10.2017 18:00:00 11,5 6,0 26 14 68 37 W 1008,0 39 0,0
12.10.2017 17:00:00 11,7 7,0 19 11 69 37 WZW 1007,3 31 0,1
12.10.2017 16:00:00 12,9 6,3 29 16 69 37 W 1006,3 24 0,0
12.10.2017 15:00:00 12,0 7,1 32 17 64 34 W 1005,1 38 0,0

tt = temperatuur
td = dauwpunt
ff = windsnelheid
fx = windstoten
dd = windrichting
ppp = luchtdruk
vv = zicht
rr = neerslag

Weerstations in de omgeving